SCP
-0 0 0 0 0 0 0 0 0 0 0 0 0 0 0 0 0 0 0 0 0 0 0 0 0 0 0 0 0 0 0 0 0 0 0 0 0 0
0 0 0 0 0 0 0 0 0 0 0 0 0 0 0 0 0 0 0 0 0 0 0 0 0 0 0 0 0 0 0 0 0 0 0 0 0 0
0 0 0 0 0 0 0 0 0 0 0 0 0 0 0 0 0 0 0 0 0 0 0 0 0 0 0 0 0 0 0 0 0 0 0 0 0 0
0 0 0 0 0 0 0 0 0 0 0 0 0 0 0 0 0 0 0 0 0 0 0 0 0 0 0 0 0 0 0 0 0 0 0 0 0 0
0 0 0 0 0 0 0 0 0 0 0 0 0 0 0 0 0 0 0 0 0 0 0 0 0 0 0 0 0 0 0 0 0 0 0 0 0 0
0 0 0 0 0 0 0 0 0 0 0 0 0 0 0 0 0 0 0 0 0 0 0 0 0 0 0 0 0 0 0 0 0 0 0 0 0 0
0 0 0 0 0 0 0 0 0 0 0 0 0 0 0 0 0 0 0 0 0 0 0 0 0 0 0 0 0 0 0 0 0 0 0 0 0 0
0 0 0 0 0 0 0 0 0 0 0 0 0 0 0 0 0 0 0 0 0 0 0 0 0 0 0 0 0 0 0 0 0 0 0 0 0 0
0 0 0 0 0 0 0 0 0 0 0 0 0 0 0 0 0 0 0 0 0 0 0 0 0 0 0 0 0 0 0 0 0 0 0 0 0 0
0 0 0 0 0 0 0 0 0 0 0 0 0 0 0 0 0 0 0 0 0 0 0 0 0 0 0 0 0 0 0 0 0 0 0 0 0 0
0 0 0 0 0 0 0 0 0 0 0 0 0 0 0 0 0 0 0 0 0 0 0 0 0 0 0 0 0 0 0 0 0 0 0 0 0 0
0 0 0 0 0 0 0 0 0 0 0 0 0 0 0 0 0 0 0 0 0 0 0 0 0 0 0 0 0 0 0 0 0 0 0 0 0 0
0 0 0 0 0 0 0 0 0 0 0 0 0 0 0 0 0 0 0 0 0 0 0 0 0 0 0 0 0 0 0 0 0 0 0 0 0 0
0 0 0 0 0 0 0 0 0 0 0 0 0 0 0 0 0 0 0 0 0 0 0 0 0 0 0 0 0 0 0 0 0 0 0 0 0 0
0 0 0 0 0 0 0 0 0 0 0 0 0 0 0 0 0 0 0 0 0 0 0 0 0 0 0 0 0 0 0 0 0 0 0 0 0 0
0 0 0 0 0 0 0 0 0 0 0 0 0 0 0 0 0 0 0 0 0 0 0 0 0 0 0 0 0 0 0 0 0 0 0 0 0 0
0 0 0 0 0 0 0 0 0 0 0 0 0 0 0 0 0 0 0 0 0 0 0 0 0 0 0 0 0 0 0 0 0 0 0 0 0 0
0 0 0 0 0 0 0 0 0 0 0 0 0 0 0 0 0 0 0 0 0 0 0 0 0 0 0 0 0 0 0 0 0 0 0 0 -0 -0
0 0 0 0 0 0 0 0 0 0 0 0 0 0 0 0 0 0 0 0 0 0 0 0 0 0 0 0 0 0 0 0 0 0 0 0 -0 -0
0 0 0 0 0 0 0 0 0 0 0 0 0 0 0 0 0 0 0 0 0 0 0 0 0 0 0 0 -0 -0 0 0 0 -0 -0 -0 -0 0
0 0 0 0 0 0 0 0 0 0 0 0 0 0 0 0 0 0 0 0 0 0 0 0 0 0 0 0 0 0 0 0 0 0 0 -0 0 0
0 0 0 0 0 0 0 0 0 0 0 0 0 0 0 0 0 0 0 0 0 0 0 0 0 0 0 0 -0 -0 0 0 0 0 0 0 0 0
0 0 0 0 0 0 0 0 0 0 0 0 0 0 0 0 0 0 0 0 0 0 0 0 0 0 0 -0 -0 -0 -0 0 0 0 0 0 0 0
Wind_Speed_500mb
74 65 67 69 64 63 63 77 80 73 86 83 89 99 97 94 97 94 101 89 93 97 93 93 89 90 88 88 85 81 79 79 79 79 75 71 66 63
71 72 66 64 70 72 77 82 87 94 107 95 103 93 95 91 89 95 94 96 103 101 100 95 93 91 89 85 81 79 78 77 78 78 78 77 77 70
66 70 75 76 77 78 85 92 102 104 106 113 104 96 103 108 108 92 98 106 114 109 105 96 95 89 86 82 78 78 78 78 80 80 82 83 83 81
81 79 81 79 89 93 102 101 92 93 109 117 113 100 101 110 106 93 91 94 108 104 103 97 89 85 81 79 78 78 78 80 83 84 86 86 89 90
78 78 89 91 97 95 91 86 85 92 95 108 108 99 96 97 94 97 96 98 80 77 71 67 70 77 82 80 81 80 80 81 87 88 90 90 94 95
79 76 77 81 81 78 78 77 77 80 86 88 95 94 91 91 90 100 93 86 89 81 64 71 71 76 80 82 74 75 80 84 87 88 91 91 91 92
63 70 78 75 71 69 65 69 69 71 76 83 88 91 88 90 85 85 80 81 81 81 83 74 78 81 80 72 68 68 76 76 75 86 93 87 85 84
65 65 64 62 65 66 65 63 63 62 66 65 70 73 69 70 65 63 69 66 56 53 52 62 56 60 63 65 68 65 77 80 80 79 83 84 82 79
56 53 51 45 46 46 48 50 49 49 52 51 48 47 43 42 36 34 34 38 42 43 44 59 62 70 69 63 59 69 77 83 86 87 93 85 81 76
26 21 23 26 30 32 31 30 28 27 25 25 25 27 28 32 35 37 42 49 56 60 55 64 64 67 61 66 69 76 77 75 75 76 78 75 72 69
9 13 16 19 19 21 24 28 31 33 34 33 33 35 39 42 45 44 41 36 43 45 38 47 58 65 64 68 71 71 68 71 68 64 65 67 66 62
12 14 15 19 22 26 30 33 35 37 41 42 42 44 45 44 44 43 42 45 47 48 33 40 45 39 43 38 40 51 56 53 55 53 47 48 48 53
17 19 23 27 32 36 36 33 32 32 33 35 37 37 37 33 31 34 33 34 41 48 50 53 56 59 56 60 65 50 54 52 47 45 50 54 48 51
22 25 29 32 33 30 32 33 33 31 30 31 30 29 26 26 32 36 42 49 54 57 61 62 69 69 67 63 65 61 57 57 57 51 53 58 56 57
25 28 32 33 31 30 37 41 33 31 30 33 33 27 29 34 38 39 40 40 41 42 43 45 46 47 47 53 55 56 54 53 49 49 58 56 53 52
27 28 26 26 29 28 27 28 29 26 29 28 27 31 36 39 40 40 43 47 50 52 45 43 44 44 49 48 51 62 57 56 52 52 53 57 58 54
19 20 23 27 26 26 26 26 27 31 32 32 38 44 42 43 46 47 49 53 56 56 53 48 45 46 47 49 55 56 61 60 57 58 56 64 61 56
19 21 23 25 25 28 29 31 31 34 37 40 40 40 43 44 47 49 47 47 52 51 47 47 49 51 51 51 47 58 59 60 56 59 58 57 63 63
22 22 23 26 28 28 30 30 32 32 35 34 35 38 40 41 43 44 45 44 45 46 48 48 48 47 53 53 51 43 47 55 52 44 36 42 57 58
25 24 24 25 25 25 27 29 30 32 33 36 36 37 38 40 42 41 41 44 45 47 48 42 40 42 48 57 69 74 55 48 39 50 58 53 49 40
24 22 22 23 24 25 28 30 31 33 36 36 36 37 38 38 39 40 42 43 44 43 46 46 45 49 53 53 59 61 57 45 46 47 47 52 50 29
21 21 22 23 25 26 29 30 31 32 33 34 35 36 36 37 38 39 40 43 42 44 47 50 47 46 48 50 57 61 60 55 45 45 52 52 55 13
21 21 22 23 24 26 28 29 30 32 32 33 34 35 37 37 36 38 40 42 43 46 47 52 52 49 47 49 55 60 58 56 51 39 20 25 24 32
Wind_Direction_500mb
260 258 260 264 262 260 263 272 274 267 268 269 271 280 276 262 260 266 264 261 256 253 252 252 246 247 253 250 250 251 252 253 255 257 255 256 255 256
253 258 258 261 265 269 271 283 286 276 272 272 275 271 272 266 266 273 258 265 257 252 251 248 243 248 250 249 250 251 252 253 255 257 260 260 261 263
259 261 264 265 262 263 276 277 273 268 261 273 268 274 268 268 268 266 264 263 253 250 247 243 241 248 247 246 248 250 253 256 259 261 262 264 263 263
259 260 261 263 266 276 280 276 286 276 270 267 272 277 272 272 270 259 260 257 252 250 246 239 241 243 242 246 249 252 255 258 260 262 263 263 262 264
259 262 263 270 277 281 285 281 288 288 278 267 272 278 274 266 265 248 242 241 232 231 235 240 238 240 244 245 250 254 257 260 261 263 265 265 265 265
262 273 278 275 279 279 287 288 291 289 282 278 273 275 270 263 258 248 240 237 234 231 231 231 233 233 237 240 246 252 259 264 265 266 265 264 263 263
265 258 270 276 278 281 285 282 283 279 278 277 277 271 269 265 266 255 251 247 241 237 240 243 243 249 247 248 255 263 266 264 267 277 270 265 264 263
269 271 276 276 278 280 284 286 285 284 279 276 273 268 270 272 268 260 254 246 243 241 241 244 241 250 260 263 265 265 265 266 268 269 273 270 267 267
271 272 276 283 290 297 300 300 298 291 283 278 275 275 273 267 261 251 247 247 251 253 266 269 267 269 275 281 268 264 264 266 270 269 267 265 265 266
276 290 295 306 312 313 317 321 321 321 321 321 313 303 294 289 285 279 275 272 270 271 273 273 276 274 272 259 263 264 270 270 270 272 270 266 264 264
334 343 340 338 353 354 341 333 328 323 320 314 307 300 293 289 287 285 282 282 285 285 283 270 275 273 271 265 263 269 267 267 265 270 276 270 268 267
18 6 2 349 334 328 328 327 326 321 317 316 315 313 309 307 306 300 296 288 283 288 288 266 277 279 282 280 276 268 263 263 264 260 270 280 280 273
6 353 345 336 330 329 329 327 325 320 320 322 321 319 319 316 307 304 301 280 276 271 276 282 284 280 274 279 266 257 277 285 278 276 271 269 268 270
354 347 344 343 345 351 344 345 342 347 337 336 334 330 322 315 300 293 289 286 287 286 285 281 280 279 280 278 277 280 276 273 272 273 277 273 266 264
359 355 356 0 6 353 359 358 359 339 335 333 328 325 323 317 313 315 310 308 305 303 301 296 293 292 286 281 281 281 283 280 279 276 273 274 267 260
7 360 0 5 3 2 360 354 349 352 351 341 334 327 322 319 317 317 315 310 306 304 300 293 292 288 284 281 283 284 284 285 284 279 276 277 270 255
14 360 357 2 359 354 350 348 343 344 343 336 327 323 320 318 314 313 310 307 307 307 305 301 297 295 292 288 286 283 284 284 282 277 274 272 273 265
16 13 5 1 356 351 346 341 337 334 329 329 325 322 319 318 315 314 314 311 310 310 309 308 307 305 299 289 279 282 281 280 280 275 268 268 271 273
33 20 11 4 -0 355 349 343 337 331 329 328 325 322 321 321 322 320 319 316 313 311 309 310 309 305 300 297 299 288 306 301 288 284 280 275 282 258
32 23 14 5 359 351 343 338 334 331 330 327 326 323 322 320 319 319 317 315 313 311 310 310 307 307 315 312 306 297 298 309 299 292 288 283 263 263
23 16 6 357 351 346 337 336 333 330 327 325 323 320 319 320 318 317 315 314 315 314 312 310 308 306 306 304 299 299 302 293 288 290 287 282 268 180
9 3 354 348 343 340 336 332 329 327 326 326 323 324 323 319 318 318 317 316 316 313 311 311 313 313 309 306 301 302 303 300 295 285 273 265 259 169
353 349 344 341 338 334 331 329 327 326 327 327 326 322 320 320 318 316 316 315 314 314 315 316 315 315 313 309 306 305 304 305 303 301 338 259 176 159
Wind_Speed_850mb
74 65 67 69 64 63 63 77 80 73 86 83 89 99 97 94 97 94 101 89 93 97 93 93 89 90 88 88 85 81 79 79 79 79 75 71 66 63
71 72 66 64 70 72 77 82 87 94 107 95 103 93 95 91 89 95 94 96 103 101 100 95 93 91 89 85 81 79 78 77 78 78 78 77 77 70
66 70 75 76 77 78 85 92 102 104 106 113 104 96 103 108 108 92 98 106 114 109 105 96 95 89 86 82 78 78 78 78 80 80 82 83 83 81
81 79 81 79 89 93 102 101 92 93 109 117 113 100 101 110 106 93 91 94 108 104 103 97 89 85 81 79 78 78 78 80 83 84 86 86 89 90
78 78 89 91 97 95 91 86 85 92 95 108 108 99 96 97 94 97 96 98 80 77 71 67 70 77 82 80 81 80 80 81 87 88 90 90 94 95
79 76 77 81 81 78 78 77 77 80 86 88 95 94 91 91 90 100 93 86 89 81 64 71 71 76 80 82 74 75 80 84 87 88 91 91 91 92
63 70 78 75 71 69 65 69 69 71 76 83 88 91 88 90 85 85 80 81 81 81 83 74 78 81 80 72 68 68 76 76 75 86 93 87 85 84
65 65 64 62 65 66 65 63 63 62 66 65 70 73 69 70 65 63 69 66 56 53 52 62 56 60 63 65 68 65 77 80 80 79 83 84 82 79
56 53 51 45 46 46 48 50 49 49 52 51 48 47 43 42 36 34 34 38 42 43 44 59 62 70 69 63 59 69 77 83 86 87 93 85 81 76
26 21 23 26 30 32 31 30 28 27 25 25 25 27 28 32 35 37 42 49 56 60 55 64 64 67 61 66 69 76 77 75 75 76 78 75 72 69
9 13 16 19 19 21 24 28 31 33 34 33 33 35 39 42 45 44 41 36 43 45 38 47 58 65 64 68 71 71 68 71 68 64 65 67 66 62
12 14 15 19 22 26 30 33 35 37 41 42 42 44 45 44 44 43 42 45 47 48 33 40 45 39 43 38 40 51 56 53 55 53 47 48 48 53
17 19 23 27 32 36 36 33 32 32 33 35 37 37 37 33 31 34 33 34 41 48 50 53 56 59 56 60 65 50 54 52 47 45 50 54 48 51
22 25 29 32 33 30 32 33 33 31 30 31 30 29 26 26 32 36 42 49 54 57 61 62 69 69 67 63 65 61 57 57 57 51 53 58 56 57
25 28 32 33 31 30 37 41 33 31 30 33 33 27 29 34 38 39 40 40 41 42 43 45 46 47 47 53 55 56 54 53 49 49 58 56 53 52
27 28 26 26 29 28 27 28 29 26 29 28 27 31 36 39 40 40 43 47 50 52 45 43 44 44 49 48 51 62 57 56 52 52 53 57 58 54
19 20 23 27 26 26 26 26 27 31 32 32 38 44 42 43 46 47 49 53 56 56 53 48 45 46 47 49 55 56 61 60 57 58 56 64 61 56
19 21 23 25 25 28 29 31 31 34 37 40 40 40 43 44 47 49 47 47 52 51 47 47 49 51 51 51 47 58 59 60 56 59 58 57 63 63
22 22 23 26 28 28 30 30 32 32 35 34 35 38 40 41 43 44 45 44 45 46 48 48 48 47 53 53 51 43 47 55 52 44 36 42 57 58
25 24 24 25 25 25 27 29 30 32 33 36 36 37 38 40 42 41 41 44 45 47 48 42 40 42 48 57 69 74 55 48 39 50 58 53 49 40
24 22 22 23 24 25 28 30 31 33 36 36 36 37 38 38 39 40 42 43 44 43 46 46 45 49 53 53 59 61 57 45 46 47 47 52 50 29
21 21 22 23 25 26 29 30 31 32 33 34 35 36 36 37 38 39 40 43 42 44 47 50 47 46 48 50 57 61 60 55 45 45 52 52 55 13
21 21 22 23 24 26 28 29 30 32 32 33 34 35 37 37 36 38 40 42 43 46 47 52 52 49 47 49 55 60 58 56 51 39 20 25 24 32
Wind_Direction_850mb
260 258 260 264 262 260 263 272 274 267 268 269 271 280 276 262 260 266 264 261 256 253 252 252 246 247 253 250 250 251 252 253 255 257 255 256 255 256
253 258 258 261 265 269 271 283 286 276 272 272 275 271 272 266 266 273 258 265 257 252 251 248 243 248 250 249 250 251 252 253 255 257 260 260 261 263
259 261 264 265 262 263 276 277 273 268 261 273 268 274 268 268 268 266 264 263 253 250 247 243 241 248 247 246 248 250 253 256 259 261 262 264 263 263
259 260 261 263 266 276 280 276 286 276 270 267 272 277 272 272 270 259 260 257 252 250 246 239 241 243 242 246 249 252 255 258 260 262 263 263 262 264
259 262 263 270 277 281 285 281 288 288 278 267 272 278 274 266 265 248 242 241 232 231 235 240 238 240 244 245 250 254 257 260 261 263 265 265 265 265
262 273 278 275 279 279 287 288 291 289 282 278 273 275 270 263 258 248 240 237 234 231 231 231 233 233 237 240 246 252 259 264 265 266 265 264 263 263
265 258 270 276 278 281 285 282 283 279 278 277 277 271 269 265 266 255 251 247 241 237 240 243 243 249 247 248 255 263 266 264 267 277 270 265 264 263
269 271 276 276 278 280 284 286 285 284 279 276 273 268 270 272 268 260 254 246 243 241 241 244 241 250 260 263 265 265 265 266 268 269 273 270 267 267
271 272 276 283 290 297 300 300 298 291 283 278 275 275 273 267 261 251 247 247 251 253 266 269 267 269 275 281 268 264 264 266 270 269 267 265 265 266
276 290 295 306 312 313 317 321 321 321 321 321 313 303 294 289 285 279 275 272 270 271 273 273 276 274 272 259 263 264 270 270 270 272 270 266 264 264
334 343 340 338 353 354 341 333 328 323 320 314 307 300 293 289 287 285 282 282 285 285 283 270 275 273 271 265 263 269 267 267 265 270 276 270 268 267
18 6 2 349 334 328 328 327 326 321 317 316 315 313 309 307 306 300 296 288 283 288 288 266 277 279 282 280 276 268 263 263 264 260 270 280 280 273
6 353 345 336 330 329 329 327 325 320 320 322 321 319 319 316 307 304 301 280 276 271 276 282 284 280 274 279 266 257 277 285 278 276 271 269 268 270
354 347 344 343 345 351 344 345 342 347 337 336 334 330 322 315 300 293 289 286 287 286 285 281 280 279 280 278 277 280 276 273 272 273 277 273 266 264
359 355 356 0 6 353 359 358 359 339 335 333 328 325 323 317 313 315 310 308 305 303 301 296 293 292 286 281 281 281 283 280 279 276 273 274 267 260
7 360 0 5 3 2 360 354 349 352 351 341 334 327 322 319 317 317 315 310 306 304 300 293 292 288 284 281 283 284 284 285 284 279 276 277 270 255
14 360 357 2 359 354 350 348 343 344 343 336 327 323 320 318 314 313 310 307 307 307 305 301 297 295 292 288 286 283 284 284 282 277 274 272 273 265
16 13 5 1 356 351 346 341 337 334 329 329 325 322 319 318 315 314 314 311 310 310 309 308 307 305 299 289 279 282 281 280 280 275 268 268 271 273
33 20 11 4 -0 355 349 343 337 331 329 328 325 322 321 321 322 320 319 316 313 311 309 310 309 305 300 297 299 288 306 301 288 284 280 275 282 258
32 23 14 5 359 351 343 338 334 331 330 327 326 323 322 320 319 319 317 315 313 311 310 310 307 307 315 312 306 297 298 309 299 292 288 283 263 263
23 16 6 357 351 346 337 336 333 330 327 325 323 320 319 320 318 317 315 314 315 314 312 310 308 306 306 304 299 299 302 293 288 290 287 282 268 180
9 3 354 348 343 340 336 332 329 327 326 326 323 324 323 319 318 318 317 316 316 313 311 311 313 313 309 306 301 302 303 300 295 285 273 265 259 169
353 349 344 341 338 334 331 329 327 326 327 327 326 322 320 320 318 316 316 315 314 314 315 316 315 315 313 309 306 305 304 305 303 301 338 259 176 159